• în Republica Moldova
  • Lista ţărilor
  • Pe 7 zile
  • Temperatura apei
  • Hartă satelitară
  • Meteo pe hartă
  • Widget-uri
  • user-avatar
    Intrare

    Meteo pe oră la Shusha

    Astăzi, 16 August, Miercuri

    Timp Temperatura Precipitaţii Vânt Presiune Umiditate
    00:00 +18°C° 0 mm 2 m/s 659 mmHg 60%
    01:00 +18°C° 0 mm 2 m/s 659 mmHg 62%
    02:00 +18°C° 0 mm 2 m/s 659 mmHg 65%
    03:00 +18°C° 0 mm 1 m/s 659 mmHg 66%
    04:00 +18°C° 0 mm 1 m/s 659 mmHg 66%
    05:00 +19°C° 0 mm 1 m/s 659 mmHg 66%
    06:00 +19°C° 0 mm 1 m/s 660 mmHg 66%
    07:00 +20°C° 0 mm 2 m/s 660 mmHg 59%
    08:00 +21°C° 0 mm 2 m/s 661 mmHg 53%
    09:00 +24°C° 0 mm 3 m/s 661 mmHg 48%
    10:00 +25°C° 0 mm 3 m/s 661 mmHg 45%
    11:00 +26°C° 0 mm 3 m/s 661 mmHg 41%
    12:00 +27°C° 0 mm 4 m/s 662 mmHg 38%
    13:00 +27°C° 0 mm 4 m/s 661 mmHg 38%
    14:00 +27°C° 0 mm 3 m/s 661 mmHg 37%
    15:00 +27°C° 0 mm 3 m/s 661 mmHg 37%
    16:00 +26°C° 0 mm 3 m/s 661 mmHg 38%
    17:00 +26°C° 0 mm 3 m/s 661 mmHg 39%
    18:00 +25°C° 0 mm 3 m/s 661 mmHg 40%
    19:00 +24°C° 0 mm 2 m/s 661 mmHg 43%
    20:00 +23°C° 0 mm 2 m/s 661 mmHg 47%
    21:00 +21°C° 0 mm 1 m/s 661 mmHg 51%
    22:00 +21°C° 0 mm 1 m/s 660 mmHg 52%
    23:00 +20°C° 0 mm 1 m/s 660 mmHg 53%

    Mâine, 17 August, Joi

    Timp Temperatura Precipitaţii Vânt Presiune Umiditate
    00:00 +20°C° 0 mm 1 m/s 660 mmHg 55%
    01:00 +19°C° 0 mm 1 m/s 660 mmHg 56%
    02:00 +19°C° 0 mm 1 m/s 660 mmHg 56%
    03:00 +18°C° 0 mm 2 m/s 660 mmHg 57%
    04:00 +18°C° 0 mm 2 m/s 660 mmHg 56%
    05:00 +19°C° 0 mm 1 m/s 660 mmHg 55%
    06:00 +19°C° 0 mm 1 m/s 660 mmHg 54%
    07:00 +20°C° 0 mm 2 m/s 660 mmHg 49%
    08:00 +23°C° 0 mm 2 m/s 661 mmHg 44%
    09:00 +25°C° 0 mm 2 m/s 662 mmHg 38%
    10:00 +25°C° 0,1 mm 2 m/s 662 mmHg 38%
    11:00 +26°C° 0,1 mm 2 m/s 661 mmHg 38%
    12:00 +26°C° 0,1 mm 3 m/s 661 mmHg 37%
    13:00 +27°C° 0 mm 3 m/s 661 mmHg 36%
    14:00 +28°C° 0 mm 3 m/s 661 mmHg 34%
    15:00 +29°C° 0 mm 3 m/s 661 mmHg 33%
    16:00 +28°C° 0,1 mm 3 m/s 661 mmHg 35%
    17:00 +27°C° 0,1 mm 3 m/s 660 mmHg 37%
    18:00 +26°C° 0,1 mm 3 m/s 660 mmHg 40%
    19:00 +25°C° 0 mm 3 m/s 660 mmHg 45%
    20:00 +23°C° 0 mm 2 m/s 660 mmHg 50%
    21:00 +20°C° 0 mm 2 m/s 660 mmHg 55%
    22:00 +20°C° 0 mm 2 m/s 660 mmHg 56%
    23:00 +19°C° 0 mm 2 m/s 660 mmHg 58%

    Poimâine, 18 August, Vineri

    Timp Temperatura Precipitaţii Vânt Presiune Umiditate
    00:00 +18°C° 0 mm 2 m/s 660 mmHg 60%
    01:00 +18°C° 0 mm 2 m/s 660 mmHg 60%
    02:00 +18°C° 0 mm 2 m/s 659 mmHg 61%
    03:00 +17°C° 0 mm 2 m/s 659 mmHg 62%
    04:00 +18°C° 0 mm 2 m/s 660 mmHg 61%
    05:00 +19°C° 0 mm 1 m/s 660 mmHg 59%
    06:00 +19°C° 0 mm 1 m/s 660 mmHg 58%
    07:00 +20°C° 0 mm 2 m/s 660 mmHg 51%
    08:00 +23°C° 0 mm 2 m/s 661 mmHg 44%
    09:00 +25°C° 0 mm 2 m/s 661 mmHg 37%
    10:00 +26°C° 0 mm 2 m/s 662 mmHg 34%
    11:00 +28°C° 0 mm 3 m/s 662 mmHg 31%
    12:00 +29°C° 0 mm 3 m/s 662 mmHg 28%
    13:00 +29°C° 0 mm 3 m/s 662 mmHg 27%
    14:00 +30°C° 0 mm 3 m/s 661 mmHg 26%
    15:00 +30°C° 0 mm 3 m/s 661 mmHg 26%
    16:00 +29°C° 0 mm 3 m/s 661 mmHg 27%
    17:00 +28°C° 0 mm 3 m/s 661 mmHg 29%
    18:00 +28°C° 0 mm 3 m/s 661 mmHg 30%
    19:00 +26°C° 0 mm 2 m/s 661 mmHg 34%
    20:00 +24°C° 0 mm 2 m/s 661 mmHg 38%
    21:00 +21°C° 0 mm 2 m/s 661 mmHg 42%
    22:00 +20°C° 0 mm 2 m/s 661 mmHg 43%
    23:00 +19°C° 0 mm 2 m/s 661 mmHg 44%

    19 August, Sâmbătă

    Timp Temperatura Precipitaţii Vânt Presiune Umiditate
    00:00 +19°C° 0 mm 2 m/s 661 mmHg 45%
    01:00 +18°C° 0 mm 2 m/s 661 mmHg 44%
    02:00 +18°C° 0 mm 2 m/s 661 mmHg 44%
    03:00 +18°C° 0 mm 2 m/s 661 mmHg 44%
    04:00 +18°C° 0 mm 2 m/s 661 mmHg 42%
    05:00 +18°C° 0 mm 2 m/s 662 mmHg 41%
    06:00 +18°C° 0 mm 2 m/s 662 mmHg 39%
    07:00 +21°C° 0 mm 2 m/s 663 mmHg 35%
    08:00 +24°C° 0 mm 2 m/s 663 mmHg 30%
    09:00 +26°C° 0 mm 2 m/s 664 mmHg 26%
    10:00 +27°C° 0 mm 2 m/s 664 mmHg 24%
    11:00 +29°C° 0 mm 3 m/s 664 mmHg 22%
    12:00 +30°C° 0 mm 3 m/s 664 mmHg 21%
    13:00 +30°C° 0 mm 4 m/s 664 mmHg 21%
    14:00 +30°C° 0 mm 4 m/s 664 mmHg 21%
    15:00 +32°C° 0 mm 4 m/s 664 mmHg 21%
    16:00 +30°C° 0 mm 4 m/s 663 mmHg 23%
    17:00 +29°C° 0 mm 4 m/s 663 mmHg 26%
    18:00 +28°C° 0 mm 4 m/s 663 mmHg 28%
    19:00 +26°C° 0 mm 3 m/s 663 mmHg 32%
    20:00 +24°C° 0 mm 2 m/s 663 mmHg 35%
    21:00 +20°C° 0 mm 2 m/s 663 mmHg 39%
    22:00 +20°C° 0 mm 2 m/s 663 mmHg 40%
    23:00 +19°C° 0 mm 2 m/s 663 mmHg 41%

    20 August, Duminică

    Timp Temperatura Precipitaţii Vânt Presiune Umiditate
    00:00 +19°C° 0 mm 2 m/s 663 mmHg 43%
    01:00 +18°C° 0 mm 2 m/s 662 mmHg 42%
    02:00 +18°C° 0 mm 2 m/s 662 mmHg 41%
    03:00 +18°C° 0 mm 2 m/s 662 mmHg 40%
    04:00 +18°C° 0 mm 2 m/s 662 mmHg 40%
    05:00 +18°C° 0 mm 2 m/s 662 mmHg 39%
    06:00 +18°C° 0 mm 2 m/s 663 mmHg 38%
    07:00 +20°C° 0 mm 2 m/s 663 mmHg 35%
    08:00 +24°C° 0 mm 2 m/s 664 mmHg 31%
    09:00 +26°C° 0 mm 2 m/s 664 mmHg 27%
    10:00 +27°C° 0 mm 2 m/s 664 mmHg 25%
    11:00 +28°C° 0 mm 3 m/s 664 mmHg 23%
    12:00 +30°C° 0 mm 3 m/s 664 mmHg 21%
    13:00 +30°C° 0 mm 3 m/s 663 mmHg 21%
    14:00 +30°C° 0 mm 3 m/s 663 mmHg 21%
    15:00 +31°C° 0 mm 3 m/s 663 mmHg 21%
    16:00 +30°C° 0 mm 3 m/s 663 mmHg 23%
    17:00 +29°C° 0 mm 3 m/s 663 mmHg 25%
    18:00 +28°C° 0 mm 3 m/s 662 mmHg 27%
    19:00 +26°C° 0 mm 2 m/s 662 mmHg 31%
    20:00 +24°C° 0 mm 2 m/s 662 mmHg 35%
    21:00 +21°C° 0 mm 2 m/s 662 mmHg 39%
    22:00 +20°C° 0 mm 2 m/s 662 mmHg 40%
    23:00 +19°C° 0 mm 2 m/s 662 mmHg 42%

    21 August, Luni

    Timp Temperatura Precipitaţii Vânt Presiune Umiditate
    00:00 +19°C° 0 mm 2 m/s 662 mmHg 43%
    01:00 +19°C° 0 mm 2 m/s 662 mmHg 42%
    02:00 +18°C° 0 mm 2 m/s 662 mmHg 41%
    03:00 +18°C° 0 mm 2 m/s 661 mmHg 41%
    04:00 +18°C° 0 mm 2 m/s 662 mmHg 40%
    05:00 +18°C° 0 mm 2 m/s 662 mmHg 39%
    06:00 +18°C° 0 mm 2 m/s 662 mmHg 39%
    07:00 +21°C° 0 mm 2 m/s 663 mmHg 35%
    08:00 +24°C° 0 mm 2 m/s 663 mmHg 31%
    09:00 +26°C° 0 mm 2 m/s 664 mmHg 28%
    10:00 +27°C° 0 mm 2 m/s 663 mmHg 26%
    11:00 +29°C° 0 mm 3 m/s 663 mmHg 24%
    12:00 +30°C° 0 mm 3 m/s 663 mmHg 22%
    13:00 +30°C° 0 mm 3 m/s 663 mmHg 22%
    14:00 +31°C° 0 mm 3 m/s 663 mmHg 21%
    15:00 +31°C° 0 mm 3 m/s 662 mmHg 21%
    16:00 +30°C° 0 mm 3 m/s 662 mmHg 24%
    17:00 +29°C° 0 mm 3 m/s 662 mmHg 26%
    18:00 +28°C° 0 mm 3 m/s 662 mmHg 29%
    19:00 +26°C° 0 mm 2 m/s 662 mmHg 33%
    20:00 +24°C° 0 mm 2 m/s 662 mmHg 37%
    21:00 +21°C° 0 mm 2 m/s 662 mmHg 41%
    22:00 +20°C° 0 mm 2 m/s 661 mmHg 43%
    23:00 +20°C° 0 mm 2 m/s 661 mmHg 44%
    Arată mai mult